Flag for Romania Weather past 2 weeks in Constanța, Romania

Now
75 °F

Clear.


Feels Like: 73 °F
Forecast: 72 / 87 °F
Wind: N/A

Location: Constanta

Current Time: Jul 30, 2015 at 7:45:20 AM

Latest Report: Jul 30, 2015 at 5:00 AM


Visibility: 6 mi

Pressure: 29.82 "Hg

Humidity: 95%

Dew point: 73 °F

Location of ConstanțaLocation

Historic Weather in Constanța — Graph

°F

Constanța temperature yesterday

Maximum temperature yesterday: 82 °F (at 2:00 PM)
Minimum temperature yesterday: 75 °F (at 4:00 AM)
Average temperature yesterday: 79 °F

Past Weeks' High & Low Weather Summary

 TemperatureHumidityPressure
High90 °F (Jul 26, 4:00 PM)96% (Jul 25, 6:00 AM)30.14 "Hg (Jul 25, 6:00 AM)
Low63 °F (Jul 15, 6:00 AM)35% (Jul 18, 8:00 PM)29.67 "Hg (Jul 26, 6:00 PM)
Average77 °F68%29.92 "Hg
* Reported Jul 15 5:00 AM — Jul 30 5:00 AM, Constanța, Weather by CustomWeather, © 2015

Note: Actual official high and low records may vary slightly from our data, if they occured in-between our weather recording intervals... More about our weather records

Advertising

Constanța weather history for previous 24 hours

 ConditionsComfort  
Time TempWeatherWind HumidityBarometerVisibility
5:00 AM
Thu, Jul 30
75 °FClear.N/A95%29.82 "Hg6 mi
4:00 AM76 °FClear.No wind94%29.82 "Hg6 mi
3:00 AM76 °FClear.No wind91%29.82 "Hg6 mi
2:00 AM77 °FClear.No wind91%29.82 "Hg6 mi
1:00 AM78 °FClear.1 mph89%29.83 "Hg6 mi
12:00 AM78 °FClear.1 mph88%29.83 "Hg6 mi
11:00 PM
Wed, Jul 29
78 °FClear.1 mph90%29.83 "Hg6 mi
10:00 PM78 °FFog.1 mph90%29.84 "Hg2 mi
9:00 PM79 °FPassing clouds.1 mph89%29.83 "Hg6 mi
8:00 PM80 °FScattered clouds.1 mph85%29.82 "Hg6 mi
7:00 PM80 °FScattered clouds.2 mph84%29.83 "Hg6 mi
6:00 PM81 °FScattered clouds.2 mph81%29.83 "Hg6 mi
5:00 PM82 °FScattered clouds.2 mph78%29.82 "Hg6 mi
4:00 PM82 °FScattered clouds.3 mph78%29.83 "Hg6 mi
3:00 PM82 °FScattered clouds.3 mph75%29.83 "Hg6 mi
2:00 PM82 °FPartly sunny.2 mph80%29.85 "Hg6 mi
1:00 PM80 °FPartly sunny.2 mph89%29.85 "Hg6 mi
12:00 PM80 °FPartly sunny.2 mph89%29.86 "Hg6 mi
11:00 AM81 °FPartly sunny.2 mph84%29.86 "Hg6 mi
10:00 AM78 °FPartly sunny.No wind85%29.85 "Hg6 mi
9:00 AM78 °FPartly sunny.1 mph79%29.85 "Hg6 mi
8:00 AM79 °FScattered clouds.1 mph85%29.84 "Hg6 mi
7:00 AM77 °FSunny.N/A93%29.83 "Hg6 mi
Weather by CustomWeather, © 2015

See weather overviewHow to use our weather pages